Tracking 31027 objects as of 19-Jul-2025
HD Live streaming from Space Station
objects crossing your sky now

UM5-EOSAT

Track UM5-EOSAT now!
10-day predictions


NORAD ID: 60555
Int'l Code: 2024-149CR
Perigee: 572.2 km
Apogee: 585.4 km
Inclination: 97.7 °
Period: 96.1 minutes
Semi major axis: 6949 km
RCS: Unknown
Launch date: August 16, 2024
Source: Morocco (MA)
Launch site: AIR FORCE WESTERN TEST RANGE (AFWTR)
Your satellite tracking list
ICEYE-X27
Track 1 satellite(s)




NASA's NSSDC Master Catalog

Two Line Element Set (TLE):
1 60555U 24149CR  25199.65101899  .00001969  00000-0  16960-3 0  9996
2 60555  97.7178 277.0318 0009547 113.3416 246.8812 14.98453531 50216
Source of the keplerian elements: AFSPC